Weather Roundup
Issued by NWS Chicago, IL

Home | Current Version | Previous Version | Text Only | Print | Product List | Glossary Off
Versions: 1 2 3 4 5 6 7 8 9 10 11 12 13 14 15 16 17 18 19 20 21 22 23 24 25 26 27 28 29 30 31 32 33 34 35 36 37 38 39 40 41 42 43 44 45 46 47 48 49 50

000
NZUS59 KLOT 280221
HRRLOT

CHICAGO AREA WEATHER ROUNDUP
NATIONAL WEATHER SERVICE CHICAGO/ROMEOVILLE IL
900 PM CDT THU AUG 27 2015

NOTE: "FAIR" INDICATES FEW OR NO CLOUDS BELOW 12,000 FEET WITH NO
SIGNIFICANT WEATHER AND/OR OBSTRUCTIONS TO VISIBILITY.

* THESE STATIONS ARE NOT UNDER NWS QUALITY CONTROL. THEY ALSO MAY NOT
  REPORT WEATHER SUCH AS PRECIPITATION OR FOG.

ILZ005-006-012>014-019>023-280300-
NORTHEAST ILLINOIS

CITY           SKY/WX    TMP DP  RH WIND       PRES   REMARKS
OHARE          MOCLDY    66  55  67 E6        30.12S
MIDWAY         PTCLDY    68  56  65 E8        30.12S
AURORA           N/A     59  56  89 CALM      30.13S
LANSING*       PTCLDY    63  56  80 E6        30.13S
JOLIET*        PTCLDY    61  58  90 CALM      30.12S
WAUKEGAN       PTCLDY    61  55  81 SE3       30.13S
DUPAGE AIRPORT CLEAR     62  55  77 E5        30.12S
WHEELING       PTCLDY    64  55  72 CALM      30.15R
KANKAKEE*      PTCLDY    63  58  86 CALM      30.13R
MORRIS*          N/A     63  56  79 E5        30.11R
LEWIS AIRPORT* PTCLDY    64  55  73 SE5       30.12S
NORTHERLY IS     N/A     64  58  80 E3          N/A
$$

WIZ051-052-058>065-066-070>072-280300-
SOUTHEAST WISCONSIN

CITY           SKY/WX    TMP DP  RH WIND       PRES   REMARKS
MILWAUKEE      CLOUDY    63  55  75 S6        30.14R
KENOSHA*       PTCLDY    62  55  77 SE6       30.14S
RACINE*        MOCLDY    62  54  74 S5        30.15S
BURLINGTON     PTCLDY    56  52  87 CALM      30.14S
WAUKESHA       CLEAR     63  52  67 SE5       30.15R
WEST BEND      PTCLDY    61  52  72 CALM      30.13S
$$

INZ001>003-010>013-019-020-280300-
NORTHWEST INDIANA

CITY           SKY/WX    TMP DP  RH WIND       PRES   REMARKS
GARY*          PTCLDY    61  55  82 E5        30.14R
MICHIGAN CITY* NOT AVBL
RENSSELAER*    NOT AVBL
VALPARAISO     PTCLDY    60  56  86 NE5       30.15R
$$

LMZ740>746-280300-
SOUTHERN LAKE MICHIGAN

STATION/POSITION TIME  SKY/WX   TEMP WIND        PRES    VSBY
                                AIR  DIR/SP/G
                 (UTC)          (F)  (DEG/KT/KT) (MB)    (MI)
HARRISON CRIB    0200            67  100/  9/ 10   N/A
BURNHAM HARBOR   0200            64   90/  5       N/A
CALUMET HARBOR   0200            67   80/  4/  6   N/A
BURNS HARBOR     0100            66   80/  6/  8 1020.7S
MICHIGAN CITY    0200            64   60/  6/  7   N/A
$$

ABBREVIATIONS USED IN REMARKS
   TC - TEMPERATURE IN CELSIUS
  WCI - WIND CHILL INDEX
   HX - HEAT INDEX
  VSB - VISIBILITY
$$


USA.gov is the U.S. government's official web portal to all federal, state and local government web resources and services.